"Timestamp","TZ","WindDir_Mean (deg)","WindSpd_Mean (km/h)","WindSpd_Min (km/h)","WindSpd_Max (km/h)","Temp_Mean (deg)","RH_Mean (%)","MSLP_Mean (hPa)","Rain_Acc (mm)","Rain_Intensity (mm/h)","Hail_Acc (hits/cm2)","Hail_Intensity (hits/cm2hr)","Solar_Mean (W/m2)"
2022/04/27 00:00:00.007,n,270,4.32,4.32,4.68,18.3,79.8,1019.12,0,0,0,0,0.032158
2022/04/27 00:01:00.000,n,276,3.24,2.88,3.6,18.3,79.4,1019.12,0,0,0,0,0.031319
2022/04/27 00:02:00.002,n,269,1.8,1.08,1.8,18.3,79.8,1019.12,0,0,0,0,0.030441
2022/04/27 00:03:00.000,n,273,3.6,3.24,3.96,18.3,80.3,1019.12,0,0,0,0,0.03479
2022/04/27 00:04:00.000,n,269,3.96,2.88,4.68,18.3,80.1,1019.12,0,0,0,0,0.033913
2022/04/27 00:05:00.000,n,264,2.88,2.52,3.24,18.3,79.8,1019.12,0,0,0,0,0.032158
2022/04/27 00:06:00.006,n,284,1.8,1.44,2.16,18.3,79.7,1019.12,0,0,0,0,0.032158
2022/04/27 00:07:00.004,n,287,4.32,2.52,5.04,18.3,80.5,1019.02,0,0,0,0,0.033073
2022/04/27 00:08:00.001,n,284,2.88,0.36,3.96,18.3,79.9,1019.02,0,0,0,0,0.029564
2022/04/27 00:09:00.016,n,242,1.44,1.08,1.44,18.3,80.1,1019.02,0,0,0,0,0.028725
2022/04/27 00:10:00.000,n,158,2.52,2.16,2.52,18.2,79.4,1019.12,0,0,0,0,0.030441
2022/04/27 00:11:00.000,n,153,3.96,3.6,4.32,18.2,78.9,1019.12,0,0,0,0,0.031319
2022/04/27 00:12:00.000,n,194,3.96,3.6,4.32,18.1,79,1019.12,0,0,0,0,0.029564
2022/04/27 00:13:00.004,n,152,5.76,3.24,9.36,18.1,79,1019.12,0,0,0,0,0.030441
2022/04/27 00:14:00.001,n,202,1.44,1.44,1.8,18,79,1019.12,0,0,0,0,0.026932
2022/04/27 00:15:00.000,n,279,1.08,0.36,1.8,18,79.2,1019.12,0,0,0,0,0.028725
2022/04/27 00:16:00.011,n,137,0.36,0.36,0.72,18,79.1,1019.12,0,0,0,0,0.026932
2022/04/27 00:17:00.009,n,268,0.72,0.36,0.72,18,79.6,1019.12,0,0,0,0,0.028725
2022/04/27 00:18:00.007,n,226,1.08,1.08,1.44,18.1,79.6,1019.12,0,0,0,0,0.026093
2022/04/27 00:19:00.000,n,248,2.52,2.52,2.88,18.1,79.4,1019.02,0,0,0,0,0.025215
2022/04/27 00:20:00.000,n,183,0.72,0,1.8,18.1,79.4,1019.02,0,0,0,0,0.026932
2022/04/27 00:21:00.000,n,250,1.8,1.08,2.16,18.1,79.2,1019.12,0,0,0,0,0.027809
2022/04/27 00:22:00.000,n,191,2.16,1.8,2.52,18,79.2,1019.12,0,0,0,0,0.023499
2022/04/27 00:23:00.009,n,182,3.6,2.88,4.32,18,79.2,1019.12,0,0,0,0,0.024338
2022/04/27 00:24:00.006,n,184,1.08,0.36,2.52,18,79,1019.12,0,0,0,0,0.026093
2022/04/27 00:25:00.002,n,208,1.08,0.72,2.52,18,79.3,1019.12,0,0,0,0,0.025215
2022/04/27 00:26:00.000,n,73,1.44,1.08,1.8,18,79.3,1019.12,0,0,0,0,0.024338
2022/04/27 00:27:00.012,n,295,1.8,1.44,2.52,18,79.4,1019.12,0,0,0,0,0.021744
2022/04/27 00:28:00.000,n,225,1.08,0.72,1.8,18,79.4,1019.02,0,0,0,0,0.026093
2022/04/27 00:29:00.000,n,275,0.72,0.36,1.44,18,79.4,1019.02,0,0,0,0,0.025215
2022/04/27 00:30:00.003,n,189,2.52,2.16,3.24,18,79.5,1019.02,0,0,0,0,0.021744
2022/04/27 00:31:00.000,n,226,1.44,0.72,1.8,18,79.5,1019.02,0,0,0,0,0.023499
2022/04/27 00:32:00.000,n,200,2.88,2.52,3.24,18,79.5,1019.02,0,0,0,0,0.022583
2022/04/27 00:33:00.010,n,248,1.44,1.08,1.8,18,79.6,1019.02,0,0,0,0,0.026131
2022/04/27 00:34:00.004,n,161,1.8,1.08,2.52,18,79.5,1019.02,0,0,0,0,0.033112
2022/04/27 00:35:00.001,n,262,1.08,0.72,2.16,18,79.5,1019.02,0,0,0,0,0.032196
2022/04/27 00:36:00.015,n,165,4.68,3.6,5.4,18,79.5,1019.02,0,0,0,0,0.033951
2022/04/27 00:37:00.000,n,296,1.08,0.36,1.8,18,79.4,1019.02,0,0,0,0,0.033112
2022/04/27 00:38:00.000,n,87,1.08,1.08,1.44,18,79.6,1018.92,0,0,0,0,0.032196
2022/04/27 00:39:00.000,n,186,2.88,2.88,3.24,18,79.5,1018.92,0,0,0,0,0.034828
2022/04/27 00:40:00.003,n,245,0.36,0.36,0.72,18,79.4,1018.92,0,0,0,0,0.031319
2022/04/27 00:41:00.000,n,222,0.36,0,0.72,18,79.7,1018.92,0,0,0,0,0.031319
2022/04/27 00:42:00.000,n,189,0.36,0,0.72,18,79.5,1019.02,0,0,0,0,0.033951
2022/04/27 00:43:00.010,n,162,1.08,0.36,1.8,18,79.4,1018.92,0,0,0,0,0.033951
2022/04/27 00:44:00.007,n,311,2.16,1.8,3.24,18,79.7,1018.92,0,0,0,0,0.029602
2022/04/27 00:45:00.004,n,292,2.16,1.8,2.52,18,79.6,1018.92,0,0,0,0,0.030479
2022/04/27 00:46:00.001,n,247,0.72,0.72,1.08,18.1,79.6,1018.92,0,0,0,0,0.027885
2022/04/27 00:47:00.000,n,67,1.8,1.44,2.16,18.1,79.5,1018.92,0,0,0,0,0.028725
2022/04/27 00:48:00.002,n,29,1.8,1.08,2.52,18,79.5,1018.82,0,0,0,0,0.034828
2022/04/27 00:49:00.003,n,270,1.8,1.44,2.16,18,79.5,1018.92,0,0,0,0,0.031319
2022/04/27 00:50:00.000,n,209,1.08,0.36,1.44,18,79.8,1018.92,0,0,0,0,0.038338
2022/04/27 00:51:00.008,n,284,4.32,3.6,5.04,18.1,80.4,1018.92,0,0,0,0,0.038338
2022/04/27 00:52:00.005,n,324,2.16,1.08,2.88,18.2,80.8,1018.92,0,0,0,0,0.035706
2022/04/27 00:53:00.002,n,314,2.16,1.8,3.24,18.2,79.9,1018.92,0,0,0,0,0.039177
2022/04/27 00:54:00.017,n,308,1.8,0,3.6,18.1,79.9,1018.92,0,0,0,0,0.035706
2022/04/27 00:55:00.000,n,271,3.96,2.88,4.32,18.1,80.3,1018.92,0,0,0,0,0.036545
2022/04/27 00:56:00.000,n,241,2.16,1.8,3.24,18.1,79.9,1018.92,0,0,0,0,0.034828
2022/04/27 00:57:00.000,n,304,4.32,3.6,5.4,18.1,81.2,1018.82,0,0,0,0,0.033951
2022/04/27 00:58:00.006,n,266,4.68,3.6,5.4,18.2,80,1018.82,0,0,0,0,0.033951
2022/04/27 00:59:00.003,n,252,5.04,4.32,5.04,18.1,79.3,1018.82,0,0,0,0,0.033951
2022/04/27 01:00:00.000,n,271,4.68,4.32,5.04,18,79.3,1018.82,0,0,0,0,0.034828
2022/04/27 01:01:00.000,n,274,6.12,5.76,6.48,17.9,79.1,1018.82,0,0,0,0,0.033951
2022/04/27 01:02:00.010,n,261,5.4,5.04,6.12,17.8,79.2,1018.82,0,0,0,0,0.031319
2022/04/27 01:03:00.006,n,282,5.76,5.4,6.12,17.8,79.3,1018.82,0,0,0,0,0.034828
2022/04/27 01:04:00.000,n,267,6.48,5.76,6.84,17.7,79.3,1018.82,0,0,0,0,0.034828
2022/04/27 01:05:00.000,n,269,7.56,6.84,8.28,17.7,79.4,1018.72,0,0,0,0,0.033112
2022/04/27 01:06:00.000,n,279,6.12,4.32,7.56,17.7,79.5,1018.72,0,0,0,0,0.030479
2022/04/27 01:07:00.000,n,273,5.76,5.76,5.76,17.7,79.7,1018.72,0,0,0,0,0.032196
2022/04/27 01:08:00.009,n,269,3.96,3.96,4.32,17.7,79.9,1018.72,0,0,0,0,0.032196
2022/04/27 01:09:00.006,n,265,3.24,3.24,3.6,17.7,79.9,1018.72,0,0,0,0,0.033951
2022/04/27 01:10:00.002,n,278,3.96,3.96,3.96,17.6,80.2,1018.62,0,0,0,0,0.033951
2022/04/27 01:11:00.000,n,276,3.96,3.96,3.96,17.6,80.1,1018.62,0,0,0,0,0.029602
2022/04/27 01:12:00.013,n,266,3.24,2.88,3.6,17.6,80.3,1018.62,0,0,0,0,0.031319
2022/04/27 01:13:00.000,n,267,4.32,3.6,4.68,17.6,80.3,1018.62,0,0,0,0,0.031319
2022/04/27 01:14:00.000,n,273,3.6,3.24,3.96,17.6,80.7,1018.62,0,0,0,0,0.028725
2022/04/27 01:15:00.004,n,282,4.68,3.96,5.76,17.7,80.9,1018.62,0,0,0,0,0.027885
2022/04/27 01:16:00.001,n,271,3.24,2.52,3.96,17.7,80.7,1018.62,0,0,0,0,0.026131
2022/04/27 01:17:00.000,n,271,4.32,3.96,4.68,17.7,81,1018.62,0,0,0,0,0.027885
2022/04/27 01:18:00.000,n,265,3.96,3.6,4.32,17.7,80.9,1018.62,0,0,0,0,0.029602
2022/04/27 01:19:00.009,n,276,2.88,1.08,4.68,17.7,81.4,1018.62,0,0,0,0,0.028725
2022/04/27 01:20:00.006,n,283,4.68,3.24,6.12,17.8,82.3,1018.52,0,0,0,0,0.028725
2022/04/27 01:21:00.004,n,264,3.96,3.6,4.32,17.8,81.2,1018.52,0,0,0,0,0.026131
2022/04/27 01:22:00.001,n,263,4.32,3.6,4.68,17.8,80.7,1018.52,0,0,0,0,0.024376
2022/04/27 01:23:00.000,n,283,5.04,4.32,5.4,17.7,80.7,1018.52,0,0,0,0,0.026131
2022/04/27 01:24:00.000,n,275,3.96,3.96,4.68,17.7,81.1,1018.52,0,0,0,0,0.024376
2022/04/27 01:25:00.000,n,262,4.68,4.32,4.68,17.7,80.7,1018.52,0,0,0,0,0.021744
2022/04/27 01:26:00.006,n,275,4.68,4.32,4.68,17.6,80.6,1018.52,0,0,0,0,0.023537
2022/04/27 01:27:00.003,n,274,4.32,4.32,4.32,17.6,80.7,1018.52,0,0,0,0,0.025253
2022/04/27 01:28:00.000,n,266,3.24,2.88,3.96,17.6,80.9,1018.52,0,0,0,0,0.023537
2022/04/27 01:29:00.013,n,265,4.68,3.96,5.04,17.6,80.9,1018.52,0,0,0,0,0.02697
2022/04/27 01:30:00.011,n,267,3.24,3.24,3.6,17.5,80.9,1018.42,0,0,0,0,0.027847
2022/04/27 01:31:00.000,n,280,3.96,3.6,4.32,17.5,81,1018.42,0,0,0,0,0.032196
2022/04/27 01:32:00.001,n,284,4.32,3.96,4.68,17.6,81.6,1018.42,0,0,0,0,0.035706
2022/04/27 01:33:00.000,n,270,5.04,4.32,5.4,17.6,81.4,1018.42,0,0,0,0,0.035706
2022/04/27 01:34:00.000,n,284,4.68,3.96,5.04,17.6,81.5,1018.42,0,0,0,0,0.032196
2022/04/27 01:35:00.009,n,277,4.68,4.32,4.68,17.6,81.5,1018.42,0,0,0,0,0.033951
2022/04/27 01:36:00.006,n,275,5.4,4.68,5.4,17.6,81,1018.42,0,0,0,0,0.03479
2022/04/27 01:37:00.003,n,257,5.4,4.68,5.76,17.6,81,1018.32,0,0,0,0,0.033951
2022/04/27 01:38:00.001,n,254,3.24,2.52,3.6,17.5,80.9,1018.32,0,0,0,0,0.030479
2022/04/27 01:39:00.013,n,280,3.24,3.24,3.6,17.5,80.9,1018.42,0,0,0,0,0.032196
2022/04/27 01:40:00.000,n,259,3.6,3.24,3.6,17.5,80.9,1018.42,0,0,0,0,0.033951
2022/04/27 01:41:00.000,n,269,5.76,5.4,5.76,17.5,80.9,1018.42,0,0,0,0,0.031357
2022/04/27 01:42:00.005,n,267,4.68,3.96,5.04,17.5,81,1018.42,0,0,0,0,0.033951
2022/04/27 01:43:00.002,n,172,1.8,1.08,1.8,17.5,81,1018.42,0,0,0,0,0.033073
2022/04/27 01:44:00.000,n,230,1.8,1.44,2.16,17.5,81.1,1018.32,0,0,0,0,0.032196
2022/04/27 01:45:00.000,n,228,2.52,2.16,3.6,17.5,81.3,1018.32,0,0,0,0,0.030479
2022/04/27 01:46:00.010,n,266,1.44,0.36,2.52,17.5,81.8,1018.32,0,0,0,0,0.03479
2022/04/27 01:47:00.008,n,273,2.16,1.8,2.52,17.6,82.2,1018.32,0,0,0,0,0.032196
2022/04/27 01:48:00.005,n,269,3.6,2.88,4.32,17.6,81.8,1018.32,0,0,0,0,0.026131
2022/04/27 01:49:00.001,n,259,1.8,1.08,2.52,17.6,81.8,1018.32,0,0,0,0,0.030479
2022/04/27 01:50:00.000,n,223,1.44,1.44,1.8,17.6,81.6,1018.22,0,0,0,0,0.030479
2022/04/27 01:51:00.000,n,243,1.44,1.44,1.8,17.6,81.4,1018.22,0,0,0,0,0.026131
2022/04/27 01:52:00.000,n,239,2.52,2.16,2.88,17.6,81.2,1018.22,0,0,0,0,0.029564
2022/04/27 01:53:00.006,n,247,1.8,1.44,2.16,17.6,81.2,1018.22,0,0,0,0,0.029564
2022/04/27 01:54:00.003,n,218,2.52,2.16,2.88,17.5,81.2,1018.22,0,0,0,0,0.028725
2022/04/27 01:55:00.000,n,247,3.24,2.52,3.6,17.5,81.1,1018.12,0,0,0,0,0.028725
2022/04/27 01:56:00.000,n,263,2.88,2.16,3.96,17.5,81.1,1018.12,0,0,0,0,0.026131
2022/04/27 01:57:00.011,n,155,1.44,1.08,1.8,17.5,81,1018.12,0,0,0,0,0.027847
2022/04/27 01:58:00.000,n,135,0.36,0.36,0.72,17.5,81,1018.12,0,0,0,0,0.021782
2022/04/27 01:59:00.000,n,139,0.36,0.36,0.72,17.5,81.1,1018.12,0,0,0,0,0.025253
2022/04/27 02:00:00.003,n,265,1.44,1.08,1.8,17.5,81.2,1018.12,0,0,0,0,0.024376
2022/04/27 02:01:00.000,n,199,1.8,1.08,2.16,17.5,81.1,1018.02,0,0,0,0,0.023499
2022/04/27 02:02:00.000,n,254,0.72,0.72,0.72,17.5,81.2,1018.02,0,0,0,0,0.020905
2022/04/27 02:03:00.000,n,278,1.44,0.72,2.52,17.5,81.3,1018.02,0,0,0,0,0.024376
2022/04/27 02:04:00.008,n,343,1.44,0.72,2.16,17.5,81.8,1018.02,0,0,0,0,0.025253
2022/04/27 02:05:00.005,n,286,1.8,1.44,2.16,17.5,81.6,1018.02,0,0,0,0,0.026131
2022/04/27 02:06:00.002,n,258,2.16,1.08,2.88,17.5,81.6,1018.02,0,0,0,0,0.024376
2022/04/27 02:07:00.000,n,147,0.36,0,0.72,17.6,81.7,1018.02,0,0,0,0,0.022621
2022/04/27 02:08:00.000,n,293,3.6,2.88,3.96,17.6,81.9,1018.12,0,0,0,0,0.027847
2022/04/27 02:09:00.000,n,282,3.6,3.24,3.96,17.6,81.9,1018.12,0,0,0,0,0.025253
2022/04/27 02:10:00.000,n,290,3.96,3.24,5.04,17.6,81.9,1018.12,0,0,0,0,0.020905
2022/04/27 02:11:00.006,n,271,1.08,0.36,2.16,17.6,82,1018.12,0,0,0,0,0.023499
2022/04/27 02:12:00.003,n,290,4.68,4.32,5.4,17.6,81.7,1018.12,0,0,0,0,0.027847
2022/04/27 02:13:00.000,n,260,1.08,0,1.8,17.6,81.4,1018.12,0,0,0,0,0.033073
2022/04/27 02:14:00.011,n,274,2.16,1.44,2.88,17.6,82.2,1018.12,0,0,0,0,0.031319
2022/04/27 02:15:00.008,n,259,5.76,5.04,6.48,17.6,81.4,1018.12,0,0,0,0,0.032196
2022/04/27 02:16:00.000,n,246,3.6,3.24,4.68,17.5,81.2,1018.12,0,0,0,0,0.031319
2022/04/27 02:17:00.001,n,239,3.96,3.6,4.32,17.5,81.2,1018.12,0,0,0,0,0.034828
2022/04/27 02:18:00.000,n,269,2.88,2.88,3.6,17.4,81.3,1018.12,0,0,0,0,0.032196
2022/04/27 02:19:00.000,n,294,2.52,2.16,3.24,17.4,81.7,1018.12,0,0,0,0,0.030479
2022/04/27 02:20:00.008,n,257,3.24,2.88,3.96,17.4,81.6,1018.12,0,0,0,0,0.034828
2022/04/27 02:21:00.005,n,236,2.52,1.8,4.32,17.4,81.7,1018.12,0,0,0,0,0.028725
2022/04/27 02:22:00.002,n,298,2.88,2.52,3.24,17.4,82,1018.12,0,0,0,0,0.033951
2022/04/27 02:23:00.000,n,285,0.72,0,1.08,17.5,82.7,1018.12,0,0,0,0,0.033073
2022/04/27 02:24:00.013,n,277,3.6,3.24,3.96,17.6,82.7,1018.12,0,0,0,0,0.033951
2022/04/27 02:25:00.000,n,260,3.24,2.88,3.6,17.6,82,1018.12,0,0,0,0,0.031319
2022/04/27 02:26:00.000,n,261,2.16,1.8,2.88,17.6,82.1,1018.02,0,0,0,0,0.032196
2022/04/27 02:27:00.004,n,251,1.8,1.44,2.16,17.6,82,1018.02,0,0,0,0,0.027847
2022/04/27 02:28:00.001,n,264,1.8,1.8,2.16,17.5,82.1,1018.02,0,0,0,0,0.028725
2022/04/27 02:29:00.000,n,229,1.44,1.44,1.8,17.5,81.9,1018.02,0,0,0,0,0.028725
2022/04/27 02:30:00.000,n,237,2.16,1.8,2.88,17.5,82,1018.02,0,0,0,0,0.02697
2022/04/27 02:31:00.010,n,190,1.44,1.08,1.8,17.5,81.8,1018.02,0,0,0,0,0.027847
2022/04/27 02:32:00.008,n,199,2.52,2.16,2.52,17.4,81.5,1018.02,0,0,0,0,0.029602
2022/04/27 02:33:00.005,n,190,2.52,2.16,2.88,17.4,81.4,1018.02,0,0,0,0,0.02697
2022/04/27 02:34:00.000,n,205,1.8,0.36,2.16,17.4,81.5,1018.02,0,0,0,0,0.02697
2022/04/27 02:35:00.000,n,277,2.16,1.44,3.24,17.3,81.8,1018.02,0,0,0,0,0.025253
2022/04/27 02:36:00.000,n,212,2.52,2.16,3.6,17.4,81.9,1018.02,0,0,0,0,0.02697
2022/04/27 02:37:00.000,n,179,1.08,1.08,1.44,17.4,81.7,1018.02,0,0,0,0,0.027847
2022/04/27 02:38:00.008,n,142,1.8,1.44,2.16,17.3,81.6,1018.02,0,0,0,0,0.029602
2022/04/27 02:39:00.005,n,124,1.44,1.44,1.44,17.3,81.5,1017.92,0,0,0,0,0.027847
2022/04/27 02:40:00.002,n,116,1.44,1.44,1.8,17.3,81.6,1017.92,0,0,0,0,0.028725
2022/04/27 02:41:00.000,n,150,0.36,0,0.36,17.3,81.8,1017.92,0,0,0,0,0.02697
2022/04/27 02:42:00.012,n,109,1.08,0.72,1.44,17.3,81.8,1017.92,0,0,0,0,0.028725
2022/04/27 02:43:00.000,n,42,1.08,0.36,1.44,17.2,81.8,1017.92,0,0,0,0,0.030479
2022/04/27 02:44:00.000,n,52,1.44,1.08,1.8,17.2,82,1017.92,0,0,0,0,0.028725
2022/04/27 02:45:00.004,n,261,3.6,3.6,4.32,17.3,82.3,1018.02,0,0,0,0,0.029602
2022/04/27 02:46:00.001,n,220,2.88,2.52,2.88,17.3,82.1,1018.02,0,0,0,0,0.026131
2022/04/27 02:47:00.000,n,251,2.88,1.8,3.24,17.3,82,1018.02,0,0,0,0,0.031319
2022/04/27 02:48:00.000,n,255,1.8,1.8,2.16,17.3,82.1,1018.02,0,0,0,0,0.027847
2022/04/27 02:49:00.009,n,217,0.72,0.72,1.08,17.2,82.1,1018.02,0,0,0,0,0.030479
2022/04/27 02:50:00.006,n,145,2.16,2.16,2.52,17.2,82.1,1018.02,0,0,0,0,0.031319
2022/04/27 02:51:00.003,n,155,3.24,2.88,3.24,17.2,82.3,1018.02,0,0,0,0,0.028725
2022/04/27 02:52:00.000,n,158,2.88,2.88,3.24,17.2,82.4,1018.02,0,0,0,0,0.031319
2022/04/27 02:53:00.000,n,174,2.16,1.8,2.16,17.2,82.4,1018.02,0,0,0,0,0.031319
2022/04/27 02:54:00.000,n,139,1.44,1.08,1.44,17.2,82.4,1018.02,0,0,0,0,0.026131
2022/04/27 02:55:00.000,n,218,1.08,0.72,1.08,17.2,82.5,1018.02,0,0,0,0,0.029602
2022/04/27 02:56:00.006,n,155,1.08,1.08,1.08,17.2,82.5,1017.92,0,0,0,0,0.030479
2022/04/27 02:57:00.004,n,195,0.36,0,0.36,17.2,82.6,1017.92,0,0,0,0,0.029602
2022/04/27 02:58:00.000,n,137,1.44,1.08,1.8,17.2,82.6,1017.92,0,0,0,0,0.025253
2022/04/27 02:59:00.014,n,249,3.24,3.24,3.6,17.2,82.7,1017.92,0,0,0,0,0.027847
2022/04/27 03:00:00.011,n,86,1.08,1.08,1.44,17.2,82.9,1017.92,0,0,0,0,0.029602
2022/04/27 03:01:00.000,n,93,0.72,0.36,0.72,17.2,82.8,1017.92,0,0,0,0,0.026131
2022/04/27 03:02:00.000,n,171,1.08,0.72,1.44,17.2,82.9,1017.82,0,0,0,0,0.029602
2022/04/27 03:03:00.002,n,150,1.8,1.8,2.16,17.2,82.9,1017.82,0,0,0,0,0.025253
2022/04/27 03:04:00.000,n,171,1.08,0.72,1.08,17.1,82.9,1017.82,0,0,0,0,0.027847
2022/04/27 03:05:00.000,n,165,1.8,1.44,1.8,17.1,83,1017.82,0,0,0,0,0.02697
2022/04/27 03:06:00.009,n,197,1.08,1.08,1.44,17.1,83,1017.92,0,0,0,0,0.025253
2022/04/27 03:07:00.006,n,247,1.08,0.72,1.08,17.1,83.1,1017.92,0,0,0,0,0.02697
2022/04/27 03:08:00.003,n,243,2.16,1.8,2.52,17.1,83.3,1017.92,0,0,0,0,0.030479
2022/04/27 03:09:00.001,n,247,2.16,2.16,2.52,17.1,83.3,1017.92,0,0,0,0,0.025253
2022/04/27 03:10:00.000,n,270,2.88,2.52,3.6,17.1,83.3,1017.92,0,0,0,0,0.02697
2022/04/27 03:11:00.000,n,259,1.8,1.44,2.52,17.1,83.8,1017.92,0,0,0,0,0.02697
2022/04/27 03:12:00.000,n,240,1.08,0.36,1.8,17.2,83.8,1017.92,0,0,0,0,0.023499
2022/04/27 03:13:00.006,n,280,2.16,1.44,2.52,17.2,84,1017.92,0,0,0,0,0.02697
2022/04/27 03:14:00.004,n,140,0.36,0,0.36,17.2,84,1017.92,0,0,0,0,0.027847
2022/04/27 03:15:00.000,n,129,0.72,0.36,1.08,17.3,83.7,1017.92,0,0,0,0,0.02697
2022/04/27 03:16:00.000,n,117,0.72,0.36,1.08,17.2,83.3,1017.92,0,0,0,0,0.029602
2022/04/27 03:17:00.010,n,121,1.44,0.72,1.8,17.2,83.4,1017.92,0,0,0,0,0.026131
2022/04/27 03:18:00.007,n,124,1.8,1.8,1.8,17.2,83.4,1017.92,0,0,0,0,0.027847
2022/04/27 03:19:00.000,n,181,2.52,1.8,2.88,17.1,83.4,1017.92,0,0,0,0,0.023499
2022/04/27 03:20:00.001,n,147,2.88,2.88,2.88,17.1,83.5,1017.92,0,0,0,0,0.02697
2022/04/27 03:21:00.000,n,221,1.08,0.36,1.44,17.1,83.4,1017.92,0,0,0,0,0.025253
2022/04/27 03:22:00.000,n,244,2.16,1.8,2.52,17.1,83.5,1017.92,0,0,0,0,0.025253
2022/04/27 03:23:00.000,n,230,2.52,2.16,2.52,17.1,83.8,1017.92,0,0,0,0,0.023499
2022/04/27 03:24:00.006,n,277,2.52,1.8,3.24,17.1,83.7,1017.92,0,0,0,0,0.02697
2022/04/27 03:25:00.004,n,236,2.52,2.16,2.88,17.1,83.6,1017.92,0,0,0,0,0.026131
2022/04/27 03:26:00.001,n,220,4.32,3.6,5.4,17.1,83.6,1017.82,0,0,0,0,0.024376
2022/04/27 03:27:00.014,n,40,2.16,1.44,2.88,17.1,83.6,1017.82,0,0,0,0,0.025253
2022/04/27 03:28:00.000,n,156,2.16,1.44,2.52,17.1,83.4,1017.82,0,0,0,0,0.025253
2022/04/27 03:29:00.000,n,118,1.08,0.36,1.8,17,83.4,1017.82,0,0,0,0,0.021744
2022/04/27 03:30:00.005,n,103,1.08,0.36,1.8,17,83.3,1017.72,0,0,0,0,0.028725
2022/04/27 03:31:00.002,n,115,1.8,1.44,2.16,17,83.3,1017.72,0,0,0,0,0.020905
2022/04/27 03:32:00.000,n,183,2.16,1.8,2.16,16.9,83.4,1017.72,0,0,0,0,0.022621
2022/04/27 03:33:00.000,n,150,0.72,0.36,0.72,16.9,83.5,1017.72,0,0,0,0,0.021744
2022/04/27 03:34:00.011,n,156,2.16,2.16,2.52,16.9,83.6,1017.72,0,0,0,0,0.022621
2022/04/27 03:35:00.008,n,160,3.24,2.88,3.24,16.9,83.7,1017.72,0,0,0,0,0.023499
2022/04/27 03:36:00.005,n,147,3.24,2.16,3.96,16.9,83.7,1017.72,0,0,0,0,0.023499
2022/04/27 03:37:00.000,n,282,3.24,3.24,3.6,16.9,83.7,1017.72,0,0,0,0,0.024376
2022/04/27 03:38:00.000,n,146,1.8,1.44,2.52,16.9,83.8,1017.72,0,0,0,0,0.021744
2022/04/27 03:39:00.000,n,261,2.52,1.8,2.52,16.9,83.8,1017.72,0,0,0,0,0.01915
2022/04/27 03:40:00.000,n,299,0.72,0.36,1.44,16.9,84.1,1017.82,0,0,0,0,0.025253
2022/04/27 03:41:00.007,n,137,0.36,0,0.36,16.9,84.1,1017.82,0,0,0,0,0.023499
2022/04/27 03:42:00.004,n,83,1.08,0.72,2.16,16.9,84.1,1017.82,0,0,0,0,0.022621
2022/04/27 03:43:00.001,n,65,2.16,1.8,2.52,16.9,83.9,1017.82,0,0,0,0,0.023499
2022/04/27 03:44:00.000,n,52,1.08,0.36,1.44,16.9,83.8,1017.82,0,0,0,0,0.020905
2022/04/27 03:45:00.011,n,266,1.8,1.08,2.52,16.9,83.8,1017.92,0,0,0,0,0.01915
2022/04/27 03:46:00.000,n,307,4.32,2.88,5.76,16.9,84.6,1017.92,0,0,0,0,0.029564
2022/04/27 03:47:00.000,n,263,2.16,1.44,2.88,17,84.6,1017.92,0,0,0,0,0.032196
2022/04/27 03:48:00.000,n,271,2.16,1.8,2.52,17,84.1,1017.92,0,0,0,0,0.033073
2022/04/27 03:49:00.000,n,233,1.44,1.08,1.8,16.9,83.9,1018.02,0,0,0,0,0.033951
2022/04/27 03:50:00.000,n,295,0.36,0.36,0.72,16.9,83.9,1018.02,0,0,0,0,0.033073
2022/04/27 03:51:00.008,n,263,0.36,0,1.08,16.9,84,1017.92,0,0,0,0,0.035667
2022/04/27 03:52:00.005,n,180,0.72,0.36,1.44,16.9,84,1017.92,0,0,0,0,0.033951
2022/04/27 03:53:00.002,n,162,1.8,1.44,2.52,16.9,83.9,1017.92,0,0,0,0,0.035667
2022/04/27 03:54:00.015,n,228,1.8,1.44,2.16,16.9,83.9,1017.92,0,0,0,0,0.033073
2022/04/27 03:55:00.000,n,220,1.44,1.08,1.44,16.9,84,1017.92,0,0,0,0,0.032196
2022/04/27 03:56:00.000,n,202,0.36,0,0.72,16.9,84.1,1017.92,0,0,0,0,0.029564
2022/04/27 03:57:00.000,n,169,0.72,0.36,1.08,16.9,84,1017.92,0,0,0,0,0.031319
2022/04/27 03:58:00.004,n,140,2.16,2.16,2.52,16.9,83.9,1017.92,0,0,0,0,0.031319
2022/04/27 03:59:00.001,n,202,1.08,0.72,1.44,16.8,83.9,1017.92,0,0,0,0,0.032196
2022/04/27 04:00:00.000,n,254,2.88,2.52,2.88,16.8,84,1017.92,0,0,0,0,0.028725
2022/04/27 04:01:00.000,n,123,0.36,0.36,0.72,16.8,84,1017.92,0,0,0,0,0.033073
2022/04/27 04:02:00.009,n,105,1.8,1.44,2.52,16.8,84,1017.92,0,0,0,0,0.027847
2022/04/27 04:03:00.006,n,190,1.44,1.44,1.8,16.8,84,1017.92,0,0,0,0,0.031319
2022/04/27 04:04:00.000,n,242,1.44,1.08,1.8,16.8,84.1,1017.92,0,0,0,0,0.032196
2022/04/27 04:05:00.001,n,26,2.52,2.16,2.88,16.9,84.3,1017.92,0,0,0,0,0.032196
2022/04/27 04:06:00.000,n,158,0.72,0.72,1.08,16.9,84.3,1017.92,0,0,0,0,0.030441
2022/04/27 04:07:00.000,n,138,0.72,0.36,1.08,16.9,84.1,1017.92,0,0,0,0,0.030441
2022/04/27 04:08:00.000,n,166,1.08,0.72,1.08,16.9,84,1017.92,0,0,0,0,0.030441
2022/04/27 04:09:00.006,n,96,1.44,0.72,1.44,16.9,84.1,1017.92,0,0,0,0,0.033951
2022/04/27 04:10:00.004,n,69,1.44,0.36,1.44,16.9,84.1,1017.92,0,0,0,0,0.032196
2022/04/27 04:11:00.000,n,44,2.16,1.8,2.16,16.9,84,1017.92,0,0,0,0,0.031319
2022/04/27 04:12:00.014,n,128,1.44,1.08,1.44,16.9,84,1017.92,0,0,0,0,0.031319
2022/04/27 04:13:00.000,n,131,1.08,0.36,1.44,16.9,84.1,1017.92,0,0,0,0,0.032196
2022/04/27 04:14:00.000,n,263,2.16,1.8,2.16,16.9,84.1,1017.92,0,0,0,0,0.033951
2022/04/27 04:15:00.005,n,201,3.24,2.52,3.6,16.9,84.3,1017.92,0,0,0,0,0.030441
2022/04/27 04:16:00.002,n,234,1.08,0.72,1.08,16.9,84.1,1017.92,0,0,0,0,0.030441
2022/04/27 04:17:00.000,n,232,1.08,0.36,1.8,16.9,84.1,1017.92,0,0,0,0,0.031319
2022/04/27 04:18:00.000,n,269,1.8,1.44,1.8,16.9,84.1,1017.92,0,0,0,0,0.03479
2022/04/27 04:19:00.010,n,10,1.44,1.08,1.8,16.9,84.1,1017.92,0,0,0,0,0.032196
2022/04/27 04:20:00.007,n,262,0.36,0.36,0.72,16.9,84.2,1017.92,0,0,0,0,0.031319
2022/04/27 04:21:00.004,n,1,2.16,1.8,2.52,16.9,84.2,1017.82,0,0,0,0,0.033951
2022/04/27 04:22:00.001,n,8,1.08,0.72,1.44,16.9,84.2,1017.82,0,0,0,0,0.033951
2022/04/27 04:23:00.000,n,259,1.8,1.44,1.8,16.9,84.1,1017.82,0,0,0,0,0.03479
2022/04/27 04:24:00.000,n,260,2.88,2.16,3.96,16.9,84.5,1017.82,0,0,0,0,0.035667
2022/04/27 04:25:00.000,n,256,2.52,1.8,2.88,16.9,84.4,1017.82,0,0,0,0,0.03479
2022/04/27 04:26:00.005,n,162,0.72,0.72,0.72,16.9,84.5,1017.92,0,0,0,0,0.033951
2022/04/27 04:27:00.003,n,308,1.08,0.36,1.08,16.9,84.3,1017.92,0,0,0,0,0.035667
2022/04/27 04:28:00.000,n,255,1.44,0.72,1.44,16.9,84.3,1017.92,0,0,0,0,0.031319
2022/04/27 04:29:00.013,n,298,1.08,1.08,1.44,16.9,84.1,1017.92,0,0,0,0,0.03479
2022/04/27 04:30:00.010,n,300,0.72,0.72,1.08,16.9,84.1,1017.92,0,0,0,0,0.03479
2022/04/27 04:31:00.000,n,249,2.52,2.16,2.88,16.9,84,1017.92,0,0,0,0,0.036545
2022/04/27 04:32:00.000,n,256,2.88,2.88,3.24,16.9,84,1017.92,0,0,0,0,0.036545
2022/04/27 04:33:00.001,n,276,1.44,1.44,2.16,16.9,84,1017.92,0,0,0,0,0.0383
2022/04/27 04:34:00.000,n,253,1.44,0.72,2.16,16.8,84,1017.92,0,0,0,0,0.037422
2022/04/27 04:35:00.000,n,276,1.08,1.08,1.44,16.8,84,1017.92,0,0,0,0,0.037422
2022/04/27 04:36:00.009,n,255,2.52,2.52,2.52,16.8,84,1017.92,0,0,0,0,0.036545
2022/04/27 04:37:00.005,n,247,1.8,1.44,2.16,16.8,84.3,1017.92,0,0,0,0,0.033951
2022/04/27 04:38:00.002,n,244,1.8,1.44,2.16,16.8,84.4,1017.92,0,0,0,0,0.0383
2022/04/27 04:39:00.000,n,244,2.88,2.52,3.24,16.8,84.2,1017.92,0,0,0,0,0.039139
2022/04/27 04:40:00.000,n,260,2.88,2.88,3.24,16.8,84.4,1017.92,0,0,0,0,0.035667
2022/04/27 04:41:00.000,n,244,2.16,1.8,2.52,16.9,84.4,1017.92,0,0,0,0,0.037422
2022/04/27 04:42:00.000,n,270,2.88,1.8,3.96,16.9,85.1,1018.02,0,0,0,0,0.0383
2022/04/27 04:43:00.004,n,271,2.52,2.16,2.88,17,85.1,1018.02,0,0,0,0,0.035667
2022/04/27 04:44:00.002,n,275,2.52,2.16,3.24,17,84.5,1018.02,0,0,0,0,0.0383
2022/04/27 04:45:00.000,n,281,4.68,4.32,5.04,17,84.3,1018.02,0,0,0,0,0.036545
2022/04/27 04:46:00.011,n,259,2.16,1.44,2.52,16.9,84,1018.02,0,0,0,0,0.0383
2022/04/27 04:47:00.008,n,272,2.88,2.16,3.24,16.9,84.3,1018.12,0,0,0,0,0.039139
2022/04/27 04:48:00.006,n,228,1.08,0.36,1.44,16.9,84.2,1018.12,0,0,0,0,0.036545
2022/04/27 04:49:00.000,n,276,3.6,2.52,4.32,16.9,84.6,1018.12,0,0,0,0,0.0383
2022/04/27 04:50:00.000,n,262,3.6,3.24,4.32,16.9,84.3,1018.22,0,0,0,0,0.035667
2022/04/27 04:51:00.000,n,276,4.32,3.96,5.04,16.9,84.2,1018.22,0,0,0,0,0.036545
2022/04/27 04:52:00.000,n,275,3.6,3.24,3.96,16.9,84.4,1018.22,0,0,0,0,0.039139
2022/04/27 04:53:00.007,n,278,4.68,3.96,5.4,16.9,84.3,1018.22,0,0,0,0,0.037422
2022/04/27 04:54:00.004,n,250,2.88,2.52,3.24,16.9,83.9,1018.32,0,0,0,0,0.039139
2022/04/27 04:55:00.001,n,291,5.76,5.04,6.84,16.9,84.9,1018.32,0,0,0,0,0.037422
2022/04/27 04:56:00.000,n,259,2.16,1.8,2.88,17.1,85,1018.32,0,0,0,0,0.039139
2022/04/27 04:57:00.011,n,260,5.4,5.04,5.4,17.1,84.4,1018.42,0,0,0,0,0.0383